STARLINK-11728

Satellite information

Favourite Embed

Satellite Type and Status

PAYLOADIN ORBIT

Key statistics

Satellite STARLINK-11728 at a glance.

Uptime

29

Days in orbit

Revolutions

≈ 15.8

Per day

Orbit

LEO

Low Earth Orbit

Inclination

43.0

Latest

Satellite identification and parameters

Extended collection of information and parameters for STARLINK-11728.

Object identification

Identified? True

Debris? False

Object name: STARLINK-11728

International designator: 2025-124G

Object number (NORAD): 64323

Object ID (CCSDS): 64323

Country: UNITED STATES OF AMERICA (US)

Current information (Y/N): Y

RCS size: LARGE

Orbital parameters

Period: 91.259 minutes

Inclination: 43.0013 deg

SMA: 6714.458 km

Apoapsis: 337.308 km

Periapsis: 335.338 km

RAAN: 58.6971 deg

Eccentricy: 0.0001467

Argument of periapsis: 260.4598 deg

Mean anomaly: 99.6106 deg

Mean motion: 15.77924817 rev/day

Mean motion (dot): 0.00245716 rev/day2

B* drag term: 0.0013703 1/REarth

Two-line elements (TLE)

Creation date: July 9, 2025, 2:22 a.m.

Reference frame: TEME

Reference center: EARTH

Epoch: July 8, 2025, 9:50 p.m. UTC

TLE line 0: 0 STARLINK-11728

TLE line 1: 1 64323U 25124G 25189.90976694 .00245716 00000-0 13703-2 0 9998

TLE line 2: 2 64323 43.0013 58.6971 0001467 260.4598 99.6106 15.77924817 4498

Live tracking on map

Real-time ground track for satellite STARLINK-11728.

In-orbit conjunctions

There are no conjunctions computed for STARLINK-11728, at the moment. Check back to stay up to date, as we update our databases every day.

Go to all conjunctions

Associated space launch

A batch of 23 satellites for the Starlink mega-constellation - SpaceX's project for space-based Internet communication system.

STARLINK-11728 was lifted into orbit during the mission ‘Falcon 9 Block 5 | Starlink Group 12-24’, on board a Falcon 9 space rocket.

The launch took place on June 10, 2025, 1:05 p.m. from Space Launch Complex 40.

For more information about the launch, click the button.

Launch to space Falcon 9 Block 5 | Starlink Group 12-24
Falcon 9 Block 5 | Starlink Group 12-24

Agency: SpaceX

Status: Launch Successful

Launch date: June 10, 2025, 1:05 p.m. UTC

Rocket: Falcon 9

Launch pad: Space Launch Complex 40

Location: Cape Canaveral SFS, FL, USA

...

Latest news about this satellite

News about space launch
Launch Roundup: ULA to launch Kuiper’s second batch of satellites, SpaceX to launch Axiom crew to ISS

SpaceX will launch Axiom Space’s fourth private crewed mission to the International Space Station (ISS)… The post Launch Roundup: ULA to launch Kuiper’s second batch of satellites, SpaceX to launch Axiom crew to ISS appeared first on NASASpaceFlight.com.

News about space launch
Live coverage: SpaceX to launch 23 Starlink satellites on a Falcon 9 rocket from Cape Canaveral

SpaceX will be attempting to land its 460th booster in the midst of the Starlink 12-24 mission. Teams are targeting liftoff from pad 40 at Cape Canaveral Space Force Station at 9:05 a.m. EDT (1305 UTC).


Newsletter sign-up

Weekly statistics, charts and insights to help you stay on top of the space industry.